| time (UTC) | temp F | wind direction | speed MPH | gust MPH | rain 1hr in | rain 24hr in | rain mn in | humidity % | barometer mb |
| 20260504173245 | 65 | 206 | 6.0 | 11.0 | 0.00 | 0.00 | 0.00 | 31 | 1083.5 |
| 20260504173144 | 65 | 192 | 6.0 | 14.0 | 0.00 | 0.00 | 0.00 | 31 | 1083.5 |
| 20260504172146 | 65 | 247 | 6.0 | 12.0 | 0.00 | 0.00 | 0.00 | 32 | 1083.5 |
| 20260504170147 | 64 | 229 | 6.0 | 13.0 | 0.00 | 0.00 | 0.00 | 35 | 1083.6 |
| 20260504160428 | 62 | 195 | 5.0 | 14.0 | 0.00 | 0.00 | 0.00 | 36 | 1083.9 |
| 20260504140730 | 57 | 242 | 6.0 | 9.0 | 0.00 | 0.00 | 0.00 | 42 | 1085.2 |
| 20260504120130 | 50 | 258 | 4.0 | 9.0 | 0.00 | 0.00 | 0.00 | 54 | 1086.5 |
| 20260504100230 | 45 | 277 | 4.0 | 7.0 | 0.00 | 0.01 | 0.00 | 61 | 1086.0 |
| 20260504081329 | 44 | 251 | 3.0 | 5.0 | 0.00 | 0.01 | 0.00 | 59 | 1085.9 |
| 20260504045729 | 32 | 270 | 0.0 | 0.0 | 0.00 | 0.01 | 0.00 | 95 | 1086.0 |
| 20260504043827 | 30 | 270 | 0.0 | 0.0 | 0.00 | 0.01 | 0.00 | 95 | 1086.0 |
| 20260504041830 | 29 | 270 | 0.0 | 0.0 | 0.00 | 0.01 | 0.00 | 95 | 1086.0 |
| 20260504040846 | 30 | 270 | 0.0 | 0.0 | 0.00 | 0.01 | 0.00 | 94 | 1085.9 |
| 20260504035939 | 30 | 270 | 0.0 | 0.0 | 0.00 | 0.01 | 0.01 | 95 | 1085.7 |
| 20260504035038 | 29 | 270 | 0.0 | 0.0 | 0.00 | 0.01 | 0.01 | 95 | 1085.6 |
| 20260504034137 | 30 | 270 | 0.0 | 0.0 | 0.00 | 0.01 | 0.01 | 94 | 1085.7 |
| 20260504033154 | 30 | 270 | 0.0 | 0.0 | 0.00 | 0.01 | 0.01 | 94 | 1085.8 |
| 20260504032138 | 30 | 270 | 0.0 | 0.0 | 0.00 | 0.01 | 0.01 | 93 | 1085.7 |
| 20260504031155 | 30 | 270 | 0.0 | 0.0 | 0.00 | 0.01 | 0.01 | 92 | 1085.7 |
| 20260504025238 | 30 | 270 | 0.0 | 0.0 | 0.00 | 0.01 | 0.01 | 92 | 1085.6 |
| 20260504024257 | 31 | 270 | 0.0 | 0.0 | 0.00 | 0.01 | 0.01 | 90 | 1085.8 |
| 20260504023337 | 31 | 270 | 0.0 | 0.0 | 0.00 | 0.01 | 0.01 | 90 | 1085.7 |
| 20260504021354 | 31 | 270 | 0.0 | 0.0 | 0.00 | 0.01 | 0.01 | 88 | 1085.6 |
| 20260504020454 | 32 | 270 | 0.0 | 0.0 | 0.00 | 0.01 | 0.01 | 87 | 1085.7 |
| 20260504015537 | 32 | 270 | 0.0 | 0.0 | 0.00 | 0.01 | 0.01 | 85 | 1085.6 |
| 20260504014538 | 33 | 270 | 0.0 | 0.0 | 0.00 | 0.01 | 0.01 | 85 | 1085.6 |
| 20260504013538 | 34 | 225 | 0.0 | 0.0 | 0.00 | 0.01 | 0.01 | 83 | 1085.5 |
| 20260504012557 | 34 | 225 | 0.0 | 0.0 | 0.00 | 0.01 | 0.01 | 81 | 1085.4 |
| 20260504011639 | 35 | 225 | 0.0 | 0.0 | 0.00 | 0.01 | 0.01 | 79 | 1085.3 |
| 20260504010639 | 36 | 225 | 0.0 | 0.0 | 0.00 | 0.01 | 0.01 | 78 | 1085.2 |
| 20260504005655 | 37 | 225 | 0.0 | 0.0 | 0.00 | 0.01 | 0.01 | 76 | 1085.1 |
| 20260504005540 | 37 | 225 | 0.0 | 0.0 | 0.00 | 0.01 | 0.01 | 75 | 1085.0 |
| 20260504003556 | 39 | 225 | 0.0 | 0.0 | 0.00 | 0.01 | 0.01 | 67 | 1084.8 |
| 20260504002639 | 40 | 225 | 0.0 | 0.0 | 0.00 | 0.01 | 0.01 | 63 | 1084.8 |
| 20260504001654 | 42 | 225 | 0.0 | 1.0 | 0.00 | 0.01 | 0.01 | 59 | 1084.6 |
| 20260504001558 | 42 | 163 | 0.0 | 0.0 | 0.00 | 0.01 | 0.01 | 58 | 1084.6 |
| 20260504000640 | 43 | 270 | 0.0 | 0.0 | 0.00 | 0.01 | 0.01 | 53 | 1084.6 |
| 20260503235656 | 44 | 317 | 2.0 | 3.0 | 0.00 | 0.01 | 0.01 | 50 | 1084.3 |
| 20260503234754 | 46 | 22 | 0.0 | 0.0 | 0.00 | 0.01 | 0.01 | 46 | 1084.3 |
| 20260503233839 | 46 | 255 | 3.0 | 5.0 | 0.00 | 0.01 | 0.01 | 45 | 1084.3 |
| 20260503232856 | 47 | 257 | 1.0 | 4.0 | 0.00 | 0.01 | 0.01 | 44 | 1084.1 |
| 20260503231940 | 47 | 281 | 3.0 | 8.0 | 0.00 | 0.01 | 0.01 | 43 | 1084.1 |
| 20260503230053 | 47 | 260 | 1.0 | 6.0 | 0.00 | 0.01 | 0.01 | 44 | 1084.0 |
| 20260503225055 | 47 | 263 | 6.0 | 9.0 | 0.00 | 0.02 | 0.01 | 45 | 1083.8 |
| 20260503224053 | 47 | 253 | 4.0 | 8.0 | 0.00 | 0.07 | 0.01 | 44 | 1084.1 |
| 20260503222155 | 47 | 276 | 6.0 | 8.0 | 0.00 | 0.07 | 0.01 | 44 | 1083.8 |
| 20260503221240 | 47 | 283 | 3.0 | 6.0 | 0.00 | 0.07 | 0.01 | 44 | 1083.8 |
| 20260503220255 | 47 | 285 | 3.0 | 6.0 | 0.00 | 0.07 | 0.01 | 41 | 1083.7 |
| 20260503215255 | 48 | 304 | 6.0 | 15.0 | 0.00 | 0.07 | 0.01 | 41 | 1083.5 |
| 20260503214240 | 48 | 240 | 4.0 | 7.0 | 0.00 | 0.07 | 0.01 | 40 | 1083.5 |
| 20260503213256 | 48 | 276 | 4.0 | 8.0 | 0.00 | 0.07 | 0.01 | 40 | 1083.5 |
| 20260503212253 | 49 | 268 | 4.0 | 11.0 | 0.00 | 0.07 | 0.01 | 41 | 1083.4 |
| 20260503211340 | 48 | 279 | 2.0 | 11.0 | 0.00 | 0.08 | 0.01 | 40 | 1083.3 |
| 20260503210353 | 48 | 297 | 2.0 | 4.0 | 0.00 | 0.08 | 0.01 | 39 | 1083.1 |
| 20260503204453 | 48 | 287 | 11.0 | 16.0 | 0.00 | 0.08 | 0.01 | 40 | 1082.9 |
| 20260503203456 | 48 | 285 | 7.0 | 12.0 | 0.00 | 0.09 | 0.01 | 41 | 1082.9 |
| 20260503202540 | 48 | 301 | 4.0 | 9.0 | 0.00 | 0.09 | 0.01 | 41 | 1082.9 |
| 20260503201555 | 48 | 277 | 7.0 | 12.0 | 0.00 | 0.09 | 0.01 | 42 | 1082.7 |
| 20260503200641 | 48 | 285 | 8.0 | 15.0 | 0.00 | 0.09 | 0.01 | 43 | 1082.7 |
| 20260503195737 | 48 | 276 | 4.0 | 10.0 | 0.00 | 0.09 | 0.01 | 43 | 1082.8 |
| 20260503194755 | 48 | 297 | 6.0 | 10.0 | 0.00 | 0.09 | 0.01 | 43 | 1082.9 |
| 20260503193837 | 49 | 273 | 8.0 | 19.0 | 0.00 | 0.09 | 0.01 | 42 | 1082.7 |
| 20260503192855 | 49 | 254 | 8.0 | 13.0 | 0.00 | 0.09 | 0.01 | 41 | 1082.5 |
| 20260503191953 | 49 | 264 | 12.0 | 18.0 | 0.00 | 0.09 | 0.01 | 41 | 1082.6 |
| 20260503191036 | 49 | 273 | 6.0 | 9.0 | 0.00 | 0.09 | 0.01 | 41 | 1082.5 |
| 20260503190953 | 49 | 298 | 8.0 | 13.0 | 0.00 | 0.09 | 0.01 | 42 | 1082.6 |
| 20260503185956 | 48 | 300 | 4.0 | 11.0 | 0.00 | 0.09 | 0.01 | 42 | 1082.6 |
| 20260503184955 | 48 | 281 | 5.0 | 8.0 | 0.00 | 0.10 | 0.01 | 43 | 1082.7 |
| 20260503182956 | 48 | 280 | 4.0 | 7.0 | 0.00 | 0.10 | 0.01 | 43 | 1082.7 |
| 20260503182038 | 48 | 291 | 5.0 | 7.0 | 0.00 | 0.10 | 0.01 | 44 | 1082.7 |
| 20260503181055 | 48 | 254 | 8.0 | 12.0 | 0.00 | 0.10 | 0.01 | 43 | 1082.3 |
| 20260503180154 | 48 | 289 | 4.0 | 8.0 | 0.00 | 0.10 | 0.01 | 43 | 1082.5 |